Regional Weather Roundup
Issued by NWS

Home | Current Version | Previous Version | Graphics & Text | Print | Product List | Glossary Off
Versions: 1 2 3 4 5 6 7 8 9 10 11 12 13 14 15 16 17 18 19 20 21 22 23 24 25 26 27 28 29 30 31 32 33 34 35 36 37 38 39 40 41 42 43 44 45 46 47 48 49 50

324
ASUS43 KTOP 231959
RWRKS

WEATHER ROUNDUP FOR KANSAS
NATIONAL WEATHER SERVICE GOODLAND KS
300 PM CDT SUN APR 23 2017

NOTE:  "FAIR" INDICATES FEW OR NO CLOUDS BELOW 12,000 FEET WITH NO
SIGNIFICANT WEATHER AND/OR OBSTRUCTIONS TO VISIBILITY.

KSZ001>006-013>018-027>032-041>047-232100-
NORTHWEST KANSAS

CITY           SKY/WX    TMP DP  RH WIND       PRES   REMARKS
GOODLAND       CLOUDY    65  38  36 S26G38    29.92F
HAYS           SUNNY     68  34  28 S17G26    30.04
HILL CITY      SUNNY     69  30  23 S22G31    30.01F
RUSSELL        CLOUDY    68  34  28 S20G26    30.06F
$$

KSZ061>065-074>080-084>089-232100-
SOUTHWEST KANSAS

CITY           SKY/WX    TMP DP  RH WIND       PRES   REMARKS
DODGE CITY     SUNNY     67  31  26 S20G31    30.06F
ELKHART          N/A     66  37  34 S17         N/A
GARDEN CITY    SUNNY     69  35  28 S21G29    30.02F
GREAT BEND     SUNNY     66  38  35 S13G23    30.08
$$

KSZ066>073-081>083-090>101-232100-
SOUTHEAST KANSAS

CITY           SKY/WX    TMP DP  RH WIND       PRES   REMARKS
CHANUTE        SUNNY     67  35  30 VRB3      30.12F
COFFEYVILLE    SUNNY     68  37  32 MISG      30.12F
HUTCHINSON     SUNNY     68  35  29 VRB5      30.11F
MEDICINE LODGE   N/A     65  33  30 S12       30.10F
NEWTON         SUNNY     65  36  34 S6        30.13
PARSONS        SUNNY     67  38  34 NW6       30.13F
WICHITA INTL   MOSUNNY   66  34  30 W6        30.12S
WICHITA JABRA  SUNNY     66  32  28 MISG      30.11F
WICHITA MCCONL SUNNY     66  30  25 SW3       30.12F
WINFIELD       SUNNY     66  34  30 S3        30.13F
$$

KSZ007>012-019>026-033>040-048>060-102>105-232100-
NORTHEAST KANSAS

CITY           SKY/WX    TMP DP  RH WIND       PRES   REMARKS
CONCORDIA      SUNNY     66  39  37 S14G21    30.07F
EMPORIA        SUNNY     65  32  29 CALM      30.11F
LAWRENCE       SUNNY     69  30  23 VRB3      30.10F
MANHATTAN      SUNNY     70  33  25 S8        30.09F
OLATHE IND     SUNNY     67  31  26 SW5       30.11F
OLATHE EXE     SUNNY     68  33  27 CALM      30.10F
SALINA         SUNNY     69  37  30 S10G17    30.11F
TOPEKA BILLARD SUNNY     69  32  25 CALM      30.10F
TOPEKA FORBES  SUNNY     70  34  26 S8        30.10F
$$




USA.gov is the U.S. government's official web portal to all federal, state and local government web resources and services.